Alliance, NE

6:59 AM MDT on October 23, 2017 (GMT -0600)
Alliance Municipal

Weather History for KAIA - March, 2012

Change the Weather History Date:

Thursday, March 22, 2012

  Actual Average Record
Temperature  
Mean Temperature 42 °F 39 °F  
Max Temperature 63 °F 53 °F 84 °F (1910)
Min Temperature 21 °F 24 °F -6 °F (1898)
Degree Days  
Heating Degree Days 23 26  
Month to date heating degree days 494 658  
Since 1 July heating degree days 5672 6062  
Cooling Degree Days 0 0  
Month to date cooling degree days 0 0  
Year to date cooling degree days 0 0  
Moisture  
Dew Point 38 °F    
Average Humidity 75    
Maximum Humidity 93    
Minimum Humidity 56    
Precipitation  
Precipitation 0.00 in 0.03 in 0.91 in (1944)
Month to date precipitation 0.00 0.39  
Year to date precipitation 0.86 0.95  
Sea Level Pressure  
Sea Level Pressure 29.94 in    
Wind  
Wind Speed 6 mph (NNE)    
Max Wind Speed 18 mph    
Max Gust Speed 22 mph    
Visibility 10 miles    
Events      
T = Trace of Precipitation, MM = Missing Value Source: NWS Daily Summary

Daily Weather History Graph

Daily Weather History Graph

Search for Another Location

Airport or City:

Trip Planner

Search our weather history database for the weather conditions in past years. The results will help you decide how hot, cold, wet, or windy it might be!

Date:

Astronomy

Mar. 22, 2012 Rise Set
Actual Time 6:50 AM MDT 7:06 PM MDT
Civil Twilight 6:22 AM MDT 7:34 PM MDT
Nautical Twilight 5:49 AM MDT 8:07 PM MDT
Astronomical Twilight 5:16 AM MDT 8:40 PM MDT
Moon 6:29 AM MDT (3/22) 7:34 PM MDT (3/22)
Length of Visible Light 13h 12m
Length of Day
12h 16m
New Moon, 0% of the Moon is Illuminated
Mar 22
New Moon
Mar 30
First Quarter
Apr 6
Full
Apr 13
Last Quarter
Apr 21
New

Hourly Weather History & Observations

Time (MDT) Temp. Windchill Dew Point Humidity Pressure Visibility Wind Dir Wind Speed Gust Speed Precip Events Conditions
12:53 AM 26.1 °F - 15.1 °F 63% 30.01 in 10.0 mi Calm Calm - N/A   Clear
1:53 AM 25.0 °F 20.7 °F 15.1 °F 66% 30.00 in 10.0 mi WNW 3.5 mph - N/A   Clear
2:53 AM 23.0 °F - 16.0 °F 74% 30.00 in 10.0 mi Calm Calm - N/A   Clear
3:53 AM 23.0 °F 13.9 °F 15.1 °F 72% 29.96 in 10.0 mi WNW 8.1 mph - N/A   Clear
4:53 AM 25.0 °F - 16.0 °F 69% 29.96 in 10.0 mi Calm Calm - N/A   Clear
5:53 AM 23.0 °F 17.0 °F 17.1 °F 78% 30.00 in 10.0 mi West 4.6 mph - N/A   Scattered Clouds
6:53 AM 28.0 °F 20.8 °F 19.0 °F 69% 30.00 in 10.0 mi WNW 6.9 mph - N/A   Overcast
7:53 AM 32.0 °F 28.7 °F 23.0 °F 69% 30.01 in 10.0 mi West 3.5 mph - N/A   Overcast
8:50 AM 39.2 °F - 28.4 °F 65% 29.98 in 10.0 mi Calm Calm - N/A   Overcast
8:53 AM 41.0 °F - 28.0 °F 60% 29.99 in 10.0 mi Calm Calm - N/A   Overcast
9:13 AM 42.8 °F - 28.4 °F 57% 29.97 in 10.0 mi Calm Calm - N/A   Overcast
9:53 AM 48.0 °F - 37.0 °F 66% 29.98 in 10.0 mi North 4.6 mph - N/A   Overcast
10:26 AM 48.2 °F - 39.2 °F 71% 29.97 in 10.0 mi North 6.9 mph - N/A   Overcast
10:53 AM 52.0 °F - 39.9 °F 63% 29.97 in 10.0 mi North 6.9 mph - N/A   Overcast
11:53 AM 55.9 °F - 43.0 °F 62% 29.95 in 10.0 mi NNE 6.9 mph 16.1 mph N/A   Scattered Clouds
12:06 PM 55.4 °F - 42.8 °F 63% 29.94 in 10.0 mi NNE 8.1 mph - N/A   Mostly Cloudy
12:53 PM 59.0 °F - 44.1 °F 58% 29.93 in 10.0 mi NNE 10.4 mph - N/A   Mostly Cloudy
1:05 PM 60.8 °F - 44.6 °F 55% 29.92 in 10.0 mi NNE 10.4 mph - N/A   Overcast
1:53 PM 60.1 °F - 46.0 °F 60% 29.90 in 10.0 mi NNE 13.8 mph - N/A   Mostly Cloudy
2:37 PM 60.8 °F - 46.4 °F 59% 29.88 in 10.0 mi ENE 10.4 mph - N/A   Mostly Cloudy
2:53 PM 62.1 °F - 46.9 °F 58% 29.88 in 10.0 mi NE 10.4 mph 17.3 mph N/A   Mostly Cloudy
3:01 PM 62.6 °F - 46.4 °F 55% 29.87 in 10.0 mi NE 15.0 mph 20.7 mph N/A   Scattered Clouds
3:53 PM 60.1 °F - 46.9 °F 62% 29.89 in 10.0 mi ENE 16.1 mph - N/A   Overcast
4:34 PM 59.0 °F - 46.4 °F 63% 29.88 in 10.0 mi NE 13.8 mph - N/A   Overcast
4:53 PM 52.0 °F - 46.9 °F 83% 29.91 in 10.0 mi SE 6.9 mph - N/A   Overcast
5:53 PM 51.1 °F - 46.9 °F 86% 29.93 in 10.0 mi SSE 9.2 mph - N/A   Overcast
6:53 PM 51.1 °F - 46.9 °F 86% 29.92 in 10.0 mi Calm Calm - N/A   Mostly Cloudy
7:05 PM 51.8 °F - 46.4 °F 82% 29.90 in 10.0 mi Calm Calm - N/A   Overcast
7:38 PM 51.8 °F - 46.4 °F 82% 29.91 in 10.0 mi Calm Calm - N/A   Overcast
7:46 PM 51.8 °F - 46.4 °F 82% 29.91 in 10.0 mi NW 3.5 mph - N/A   Overcast
7:53 PM 51.1 °F - 46.9 °F 86% 29.92 in 10.0 mi NW 4.6 mph - N/A   Overcast
8:53 PM 48.9 °F - 46.0 °F 90% 29.92 in 10.0 mi SSE 4.6 mph - N/A   Overcast
9:06 PM 48.2 °F - 46.4 °F 93% 29.93 in 10.0 mi SSE 4.6 mph - N/A   Overcast
9:53 PM 48.0 °F - 46.0 °F 93% 29.92 in 8.0 mi SSE 6.9 mph - N/A   Overcast
10:07 PM 48.2 °F - 46.4 °F 93% 29.93 in 10.0 mi SSE 4.6 mph - N/A   Overcast
10:53 PM 46.9 °F - 44.1 °F 90% 29.90 in 10.0 mi Calm Calm - N/A   Overcast
11:23 PM 46.4 °F - 44.6 °F 93% 29.93 in 10.0 mi Calm Calm - N/A   Overcast
11:53 PM 45.0 °F - 43.0 °F 93% 29.89 in 10.0 mi Calm Calm - N/A   Overcast
11:58 PM 42.8 °F 41.1 °F 42.8 °F 100% 29.92 in 1.2 mi West 3.5 mph - N/A   Overcast